This is the latest recevied weather packets stored in our database for station/object KD2SIG. If no packets are shown the sender has not sent any weather packets the latest 1 day(s).
| Time | Temp. | Humidity | Pressure | Rain* | Wind** | Luminosity | Snow |
|---|---|---|---|---|---|---|---|
| 1778049784 | 6.67° C | 97% | 1010.6 hPa | 0 mm | - | 0 W/m² | - |
| 1778049179 | 6.67° C | 97% | 1010.9 hPa | 1.27 mm | - | 0 W/m² | - |
| 1778048574 | 6.67° C | 96% | 1010.7 hPa | 0 mm | - | 0 W/m² | - |
| 1778048270 | 6.67° C | 97% | 1010.6 hPa | 0 mm | - | 0 W/m² | - |
| 1778047967 | 6.67° C | 96% | 1010.5 hPa | 0 mm | - | 0 W/m² | - |
| 1778047363 | 6.67° C | 96% | 1010.3 hPa | 0 mm | - | 0 W/m² | - |
| 1778046756 | 6.67° C | 96% | 1010.7 hPa | 1.78 mm | - | 0 W/m² | - |
| 1778046150 | 6.67° C | 96% | 1011.4 hPa | 1.78 mm | - | 0 W/m² | - |
| 1778045847 | 6.67° C | 96% | 1011.4 hPa | 1.78 mm | - | 0 W/m² | - |
| 1778045546 | 6.67° C | 96% | 1011.4 hPa | 0 mm | - | 0 W/m² | - |
| 1778045243 | 6.67° C | 96% | 1011.3 hPa | 0 mm | - | 0 W/m² | - |
| 1778044639 | 6.67° C | 96% | 1011.2 hPa | 0 mm | - | 0 W/m² | - |
| 1778044335 | 6.67° C | 96% | 1011.1 hPa | 0 mm | - | 0 W/m² | - |
| 1778044033 | 7.22° C | 96% | 1011.2 hPa | 1.27 mm | - | 0 W/m² | - |
| 1778043730 | 7.22° C | 96% | 1011.2 hPa | 1.27 mm | - | 0 W/m² | - |
| 1778043123 | 7.22° C | 96% | 1011.4 hPa | 1.78 mm | - | 0 W/m² | - |
| 1778042517 | 7.22° C | 96% | 1011.4 hPa | 0 mm | - | 0 W/m² | - |
| 1778042215 | 7.22° C | 96% | 1011.4 hPa | 0 mm | - | 0 W/m² | - |
| 1778041913 | 7.22° C | 96% | 1011.7 hPa | 0 mm | - | 0 W/m² | - |
| 1778041612 | 7.22° C | 96% | 1011.4 hPa | 0 mm | - | 0 W/m² | - |
| 1778041309 | 7.22° C | 96% | 1011.4 hPa | 1.27 mm | - | 0 W/m² | - |
| 1778040402 | 7.22° C | 96% | 1011.4 hPa | 0 mm | - | 0 W/m² | - |
| 1778040098 | 7.22° C | 96% | 1011.3 hPa | 1.78 mm | - | 0 W/m² | - |
| 1778039189 | 7.22° C | 96% | 1011.4 hPa | 1.27 mm | - | 0 W/m² | - |
| 1778038886 | 7.22° C | 96% | 1011.2 hPa | 1.27 mm | - | 0 W/m² | - |
* Rain latest hour (hover to see other rain measurements)
** Current wind speed in m/s (hover to see current wind gust speed)